星链-31941 (STARLINK-31941 )

导读 | 星芒AI

STARLINK-31941 是 SpaceX Starlink 项目中的一颗低轨通信卫星,属于第三代 Starlink 卫星(v1.5)。该卫星于 2023 年发射,旨在为全球提供高速、低延迟的互联网服务。它运行在约 550 公里的轨道高度,配备先进的激光通信系统和相控阵天线,以提升网络性能和连接稳定性。作为 Starlink 卫星群的一部分,STARLINK-31941 有助于扩大覆盖范围,特别是在偏远和农村地区,推动全球互联网接入的普及。

基本信息
目录编号:
59866
目录名称:
STARLINK-31941
国际标识:
2024-098J
轨道中心:
EARTH
卫星名称:
星链-31941
卫星全名:
星链-31941 (STARLINK-31941 )
卫星状态:
在轨 (已飞行575 天)
发射日期:
2024-05-24 UTC
国别 :
美国 (US)
星等 :
--
轨道信息
数据来源 国际轨道数据 AOE轨道数据
星历时间 2025-12-20T00:47:09+0800
11小时前
查看轨道信息
2025-12-19T20:00:00+0800
15小时前
查看轨道信息
半长轴 6861.2km 6861.119km
偏心率 0.0001189 0.000001
轨道倾角 43.001° 43.000°
近地点辐角 280.400° 204.621°
升交点赤经 351.990° 353.105°
平近点角 79.672° 137.582°
近地点 482.247km 482.975km
远地点 483.879km 482.989km
周期 94.267分钟 94.265分钟
每日圈数 15.275755 15.276026
详细信息
固有亮度:
5
最大亮度:
1.5
卫星平台:
Starlink v2.0 mini
覆盖范围:
全球
运营商:
太空探索技术公司
运营商所在国:
美国
制造商(研发单位):
太空探索技术公司
制造商所在国:
美国
使用方式:
暂无
卫星简介
星链(Starlink)计划是由太空探索技术公司(SpaceX)提出的一个巨型低轨卫星互联网星座项目,计划在2019年至2024年间在太空搭建由约1.2万颗卫星组成的“星链”网络,其中1584颗将部署在地球上空550千米处的近地轨道,并从2020年开始工作。该卫星仍在工作。
2D轨道图
3D轨道图
轨道高度分析图
轨道倾角分析图
轨道综合分析图
查看轨道综合分析图